{"data":{"norad_id":48361,"intl_designator":"2021-038J","name":"STARLINK-2591","alt_names":[],"object_type":"PAYLOAD","status":"ACTIVE","operator":null,"country":"US","launch_date":"2021-05-04","launch_site_code":"AFETR","launch_vehicle":null,"mission":null,"orbit_class":"UNKNOWN","rcs_meters":null,"size_class":null,"mass_kg":null,"dimensions":null,"purposes":["comms"],"wikipedia_slug":null,"has_3d_model":false,"image_url":null,"decayed_at":null,"tle_current":{"epoch":"2026-05-24T23:51:30.855168Z","epoch_age_seconds":82509,"freshness":"FRESH","line1":"1 48361U 21038J   26144.99410712  .00001471  00000+0  59145-4 0  9996","line2":"2 48361  53.1621   3.2528 0001156  90.3296 269.7838 15.31711205278763","mean_motion":15.31711205,"eccentricity":0.0001156,"inclination_deg":53.1621,"raan_deg":3.2528,"arg_perigee_deg":90.3296,"mean_anomaly_deg":269.7838,"bstar":5.9145e-5,"rev_number":27876,"period_min":94.012500221933,"perigee_km":469.91486758787,"apogee_km":471.49832022678,"semimajor_km":6848.8435939073,"source":"CELESTRAK","updated_at":"2026-05-25T13:38:16.686039Z"}}}